Flag for Canada Weather past 2 weeks in Saint John, New Brunswick, Canada

23 °F

Partly sunny.

Feels Like: 17 °F
Forecast: N/A
Wind: 5 mph from Southwest

Location: Saint John

Current Time: Nov 30, 2015 at 4:57:23 PM

Latest Report: Nov 30, 2015 at 4:00 PM

Visibility: 15 mi

Pressure: 30.45 "Hg

Humidity: 50%

Dew point: 7 °F

Location of Saint JohnLocation

Historic Weather in Saint John — Graph


Saint John temperature yesterday

Maximum temperature yesterday: 30 °F (at 1:00 AM)
Minimum temperature yesterday: 21 °F (at 10:00 PM)
Average temperature yesterday: 26 °F

Past Weeks' High & Low Weather Summary

High54 °F (Nov 22, 5:00 AM)100% (Nov 21, 11:00 PM)30.94 "Hg (Nov 21, 11:00 PM)
Low12 °F (Nov 30, 8:00 AM)40% (Nov 25, 3:00 PM)29.59 "Hg (Nov 23, 9:00 AM)
Average35 °F79%30.27 "Hg
* Reported Nov 15 3:00 PM — Nov 30 3:00 PM, Saint John, Weather by CustomWeather, © 2015

Note: Actual official high and low records may vary slightly from our data, if they occured in-between our weather recording intervals... More about our weather records


Saint John weather history for previous 24 hours

Time TempWeatherWind HumidityBarometerVisibility
3:00 PM
Mon, Nov 30
25 °FPartly sunny.8 mph42%30.46 "Hg15 mi
2:00 PM23 °FPassing clouds.3 mph42%30.45 "Hg15 mi
1:00 PM23 °FPartly sunny.2 mph46%30.47 "Hg15 mi
12:00 PM21 °FPassing clouds.3 mph54%30.50 "Hg15 mi
11:00 AM19 °FPassing clouds.7 mph58%30.53 "Hg15 mi
10:00 AM18 °FPassing clouds.9 mph58%30.53 "Hg15 mi
9:00 AM16 °FPassing clouds.13 mph62%30.51 "Hg15 mi
8:00 AM12 °FPassing clouds.10 mph73%30.50 "Hg15 mi
7:00 AM14 °FClear.9 mph67%30.48 "Hg15 mi
6:00 AM14 °FClear.12 mph73%30.46 "Hg15 mi
5:00 AM16 °FClear.12 mph73%30.45 "Hg15 mi
4:00 AM16 °FClear.12 mph73%30.42 "Hg15 mi
3:00 AM18 °FClear.15 mph68%30.41 "Hg15 mi
2:00 AM18 °FClear.12 mph68%30.39 "Hg15 mi
1:00 AM18 °FClear.10 mph68%30.38 "Hg15 mi
12:00 AM19 °FClear.13 mph63%30.36 "Hg15 mi
11:00 PM
Sun, Nov 29
21 °FClear.15 mph58%30.34 "Hg15 mi
10:00 PM21 °FClear.14 mph54%30.32 "Hg15 mi
9:00 PM23 °FPassing clouds.15 mph58%30.29 "Hg15 mi
8:00 PM23 °FPassing clouds.16 mph58%30.27 "Hg15 mi
7:00 PM25 °FPartly cloudy.15 mph69%30.24 "Hg15 mi
6:55 PM25 °FPartly cloudy.16 mph63%30.24 "Hg15 mi
6:00 PM27 °FPassing clouds.18 mph59%30.21 "Hg15 mi
5:00 PM27 °FPassing clouds.13 mph64%30.18 "Hg15 mi
4:00 PM28 °FBroken clouds.14 mph59%30.15 "Hg15 mi
Weather by CustomWeather, © 2015

See weather overviewHow to use our weather pages